TimeMST,TemperatureF,Dew PointF,Humidity,Sea Level PressureIn,VisibilityMPH,Wind Direction,Wind SpeedMPH,Gust SpeedMPH,PrecipitationIn,Events,Conditions,WindDirDegrees,DateUTC
12:56 AM,14.0,12.0,92,30.36,10.0,SE,10.4,-,N/A,,Overcast,130,2013-03-06 07:56:00
1:56 AM,15.1,12.0,88,30.35,10.0,SE,12.7,-,N/A,,Overcast,140,2013-03-06 08:56:00
2:56 AM,14.0,10.9,88,30.34,10.0,SE,15.0,-,N/A,,Overcast,130,2013-03-06 09:56:00
3:56 AM,14.0,10.9,88,30.32,10.0,SE,13.8,-,N/A,,Overcast,140,2013-03-06 10:56:00
4:25 AM,12.2,8.6,85,30.19,10.0,SE,15.0,-,N/A,,Scattered Clouds,140,2013-03-06 11:25:00
4:56 AM,10.9,8.1,88,30.32,10.0,SSE,15.0,-,N/A,,Clear,150,2013-03-06 11:56:00
5:42 AM,10.4,8.6,92,30.18,10.0,SE,12.7,-,N/A,,Partly Cloudy,140,2013-03-06 12:42:00
5:56 AM,10.9,8.1,88,30.32,10.0,SE,12.7,-,N/A,,Mostly Cloudy,130,2013-03-06 12:56:00
7:56 AM,14.0,12.0,92,30.30,4.0,SSE,16.1,-,0.00,,Overcast,150,2013-03-06 14:56:00
8:05 AM,15.8,12.2,86,30.16,2.5,SE,16.1,-,N/A,,Overcast,140,2013-03-06 15:05:00
8:14 AM,15.8,12.2,86,30.15,3.0,SE,13.8,-,N/A,,Overcast,140,2013-03-06 15:14:00
8:21 AM,15.8,12.2,86,30.15,2.0,SE,15.0,-,0.00,Snow,Light Snow,140,2013-03-06 15:21:00
8:31 AM,15.8,12.2,86,30.14,6.0,SE,17.3,-,0.00,,Overcast,140,2013-03-06 15:31:00
8:56 AM,17.1,14.0,88,30.28,3.0,SSE,17.3,-,0.00,,Overcast,150,2013-03-06 15:56:00
9:56 AM,19.0,15.1,85,30.25,10.0,SE,20.7,-,N/A,,Mostly Cloudy,140,2013-03-06 16:56:00
10:19 AM,19.4,15.8,86,30.10,10.0,SE,16.1,-,N/A,,Scattered Clouds,140,2013-03-06 17:19:00
10:56 AM,21.0,16.0,81,30.22,10.0,SE,19.6,-,N/A,,Partly Cloudy,130,2013-03-06 17:56:00
11:56 AM,23.0,17.1,78,30.19,10.0,SE,18.4,-,N/A,,Partly Cloudy,130,2013-03-06 18:56:00
12:56 PM,24.1,18.0,77,30.16,10.0,SE,19.6,-,N/A,,Scattered Clouds,130,2013-03-06 19:56:00
1:27 PM,23.0,17.6,80,30.01,10.0,SE,24.2,-,N/A,,Mostly Cloudy,140,2013-03-06 20:27:00
1:56 PM,23.0,18.0,81,30.12,10.0,SE,24.2,29.9,N/A,,Overcast,140,2013-03-06 20:56:00
2:56 PM,24.1,19.0,81,30.09,10.0,SE,19.6,-,N/A,,Overcast,140,2013-03-06 21:56:00
3:56 PM,25.0,19.9,81,30.08,10.0,SE,17.3,-,N/A,,Overcast,140,2013-03-06 22:56:00
4:13 PM,24.8,19.4,80,29.96,10.0,SE,19.6,-,N/A,,Overcast,130,2013-03-06 23:13:00
4:56 PM,25.0,19.9,81,30.07,10.0,ESE,15.0,-,N/A,,Mostly Cloudy,120,2013-03-06 23:56:00
5:21 PM,23.0,17.6,80,29.95,10.0,ESE,15.0,-,N/A,,Partly Cloudy,110,2013-03-07 00:21:00
5:56 PM,21.9,17.1,82,30.07,10.0,ESE,16.1,-,N/A,,Clear,110,2013-03-07 00:56:00
6:56 PM,21.0,16.0,81,30.06,10.0,ESE,19.6,-,N/A,,Clear,120,2013-03-07 01:56:00
7:56 PM,19.0,15.1,85,30.05,10.0,ESE,18.4,-,N/A,,Clear,120,2013-03-07 02:56:00
8:56 PM,17.1,12.9,84,30.04,10.0,ESE,17.3,-,N/A,,Clear,120,2013-03-07 03:56:00
9:29 PM,17.6,12.2,79,29.89,10.0,SE,21.9,26.5,N/A,,Partly Cloudy,130,2013-03-07 04:29:00
9:56 PM,17.1,12.9,84,30.01,10.0,SE,21.9,-,N/A,,Mostly Cloudy,130,2013-03-07 04:56:00
10:56 PM,17.1,14.0,88,30.01,10.0,SE,17.3,-,N/A,,Overcast,130,2013-03-07 05:56:00
11:56 PM,18.0,15.1,88,29.99,10.0,ESE,17.3,-,N/A,,Overcast,120,2013-03-07 06:56:00